Location: Birdton
(46.1166°N, 66.8166°W)
Time: 15:23:06
(UTC-03:00)

Daily predictions for brighter satellites

Satellite Brightness Start Highest point End
(mag) Time Altitude Azimuth Time Altitude Azimuth Time Altitude Azimuth
Cosmos 44 Rocket 4.1 21:29:51 10° NW 21:34:53 52° WSW 21:39:55 10° SSE
Tsikada Rocket 4.2 21:29:05 10° N 21:35:29 65° E 21:41:50 10° SSE
Cosmos 2016 Rocket 4.0 21:30:14 10° S 21:36:19 85° E 21:42:30 10° N
Cosmos 1939 Rocket 4.0 21:32:30 10° S 21:36:27 46° W 21:40:28 10° NNW
Cosmos 1697 Rocket 3.4 21:31:45 10° NW 21:37:15 53° WSW 21:42:44 10° S
Spot 2 Rocket 3.6 21:33:52 10° SSE 21:38:55 83° WSW 21:44:00 10° NNW
Okean 1 3.7 21:36:00 10° SSE 21:39:53 46° E 21:43:48 10° NNE
Terra 4.0 21:43:05 10° E 21:45:09 13° ENE 21:47:11 10° NNE
Meteor 1-18 Rocket 4.4 21:39:55 10° S 21:45:40 65° E 21:51:32 10° NNE
Cosmos 2360 Rocket 3.9 21:41:33 10° N 21:45:48 21° NE 21:50:03 10° E
Cosmos 1725 Rocket 4.0 21:39:44 10° S 21:45:53 75° E 21:52:06 10° NNE
Lacrosse 5 rocket 3.6 21:42:37 10° NW 21:46:09 22° NNE 21:49:32 10° ENE
USA 238 DEB 3.7 21:41:57 10° SSW 21:48:46 71° SE 21:55:43 10° NE
Cosmos 1500 3.9 21:44:57 10° NNW 21:48:46 56° W 21:52:32 10° S
USA 238 3.7 21:42:04 10° SSW 21:48:52 71° SE 21:55:49 10° NE
Cosmos 1980 Rocket 2.4 21:43:27 10° NNW 21:49:06 73° WSW 21:54:44 10° SSE
USA 245 4.5 21:47:33 10° ESE 21:50:20 26° ENE 21:53:42 10° N
MetOp-B 4.4 21:46:55 10° SE 21:52:06 54° ENE 21:57:19 10° N
Shenzhou-11 Module 2.6 21:49:43 10° WSW 21:52:30 36° S 21:55:17 10° E
Cosmos 1570 Rocket 4.3 21:48:59 10° S 21:54:08 51° ESE 21:59:20 10° NNE
BREEZE-M R/B 2.9 21:50:56 10° SW 21:54:52 36° SSE 21:57:24 10° E
SL-08 RB Rocket 4.1 21:51:47 10° SE 21:56:07 49° ENE 22:00:32 10° N
ISS -2.8 21:53:38 10° SSW 21:56:24 26° SE 21:59:11 10° E
Cosmos 1666 2.7 21:59:57 10° N 22:03:50 68° E 22:07:35 11° SSE
SPOT 1/Viking Rocket 4.5 22:00:07 11° SE 22:04:26 34° ENE 22:09:03 10° N
Cosmos 1743 2.8 22:01:16 10° N 22:05:07 64° E 22:08:39 12° SSE
Cosmos 1833 Rocket 4.2 22:01:31 10° SW 22:06:50 41° NW 22:12:10 10° NNE
H-2A R/B 2.0 22:03:35 10° SSE 22:08:23 67° ENE 22:13:23 10° N
Meteor 2-4 Rocket 4.4 22:03:40 10° SSE 22:08:25 34° E 22:13:21 10° NNE
Cosmos 304 Rocket 3.7 22:05:58 10° SSW 22:10:47 78° ESE 22:15:37 10° NNE
DNEPR-1 R/B 3.5 22:07:45 10° SSW 22:11:58 68° ESE 22:16:48 10° NE
Helios 1B rocket 3.9 22:11:32 10° NE 22:14:39 20° E 22:16:25 16° SE
Cosmos 1455 Rocket 3.8 22:11:56 10° N 22:16:00 37° ENE 22:18:57 17° SE
Abrixas rocket 3.9 22:14:37 10° S 22:15:56 16° SSE 22:15:56 16° SSE
Cosmos 1340 Rocket 4.0 22:15:58 16° SE 22:18:08 25° E 22:21:30 10° NE
ATLAS CENTAUR R/B 2.8 22:14:37 10° NW 22:18:46 36° WSW 22:23:05 10° S
USA 234 3.4 22:12:33 10° NE 22:19:08 80° NNW 22:25:43 10° WSW
Cosmos 2208 Rocket 3.9 22:15:24 10° SSW 22:20:34 75° ESE 22:25:45 10° NNE
Cosmos 1898 Rocket 3.5 22:15:29 10° NNW 22:20:48 84° ENE 22:25:14 15° SSE
Iridium 2 3.7 22:18:48 12° S 22:22:13 62° E 22:26:01 10° N
NOSS 3-2 (A) 3.4 22:16:47 10° SSW 22:22:40 72° SE 22:29:15 10° NE
Okean 1 Rocket 4.1 22:20:01 10° NNW 22:24:09 43° W 22:28:15 10° SSW
Cosmos 1242 Rocket 2.6 22:21:48 10° NNW 22:25:30 84° W 22:28:22 16° S
NOSS 3-2 (C) 3.5 22:20:17 10° SSW 22:26:02 56° ESE 22:32:27 10° NE
deb Kosmos-1763 4.2 22:23:18 10° S 22:26:54 52° ESE 22:30:32 10° NNE
Cosmos 1975 Rocket 2.9 22:23:04 10° S 22:27:24 80° E 22:31:45 10° N
Cosmos 2233 Rocket 4.1 22:23:48 10° S 22:29:57 81° W 22:36:11 10° N
Meteor 2-20 4.5 22:24:00 10° N 22:30:08 72° E 22:35:14 16° SSE
Cosmos 1814 Rocket 4.4 22:26:08 11° S 22:30:58 44° ESE 22:35:59 10° NNE
ERS-1 Rocket 3.0 22:27:59 14° SSE 22:32:17 90° WNW 22:37:20 10° NNW
Resurs 01 Rocket 4.1 22:29:17 10° SW 22:32:17 18° W 22:35:19 10° NW
Cosmos 1975 3.8 22:30:16 10° NNW 22:34:09 44° W 22:37:58 10° SSW
Tiangong 2 2.7 22:32:54 10° SSW 22:34:27 19° S 22:34:27 19° S
Cosmos 2082 Rocket 4.4 22:32:14 10° WSW 22:37:08 29° NW 22:42:05 10° N
Cosmos 2322 Rocket 2.2 22:32:18 10° NNW 22:37:58 89° WSW 22:42:00 20° SSE
Meteor 1-29 4.2 22:36:24 10° NE 22:39:17 24° E 22:39:54 22° ESE
Cosmos 292 Rocket 4.4 22:38:25 20° SSE 22:40:57 34° ESE 22:45:15 10° NE
Cosmos 1544 Rocket 3.6 22:38:25 10° N 22:42:51 72° E 22:45:37 22° SSE
SL-16 R/B 2.3 22:38:43 10° NNW 22:44:25 77° WSW 22:48:26 20° SSE
Cosmos 2150 Rocket 4.1 22:41:07 10° NNW 22:46:33 73° ENE 22:49:56 23° SSE
Cosmos 1515 4.3 22:46:39 27° SE 22:48:07 39° E 22:51:43 10° NNE
Cosmos 990 Rocket 4.1 22:44:47 10° NNW 22:50:00 77° WSW 22:53:30 21° SSE
Timation 2 Rocket 3.8 22:46:21 10° SSW 22:52:20 89° ESE 22:58:27 10° NNE
ARGOS 4.2 22:49:36 10° SSW 22:54:38 40° W 22:59:44 10° NNW
SPOT 5 2.6 22:54:03 24° S 22:56:43 84° WSW 23:01:15 10° NNW
CENTAUR R/B 2.8 22:55:22 13° S 23:00:24 45° ESE 23:06:51 10° NE
Cosmos 1536 Rocket 3.7 22:58:29 27° SSE 23:00:38 56° E 23:05:01 10° NNE
CZ-2C R/B 3.7 22:59:59 24° SE 23:02:50 46° ENE 23:08:08 10° N
SJ 16-02 2.1 22:58:52 10° N 23:03:06 41° ENE 23:05:00 27° ESE
Landsat 7 3.8 23:00:47 26° SSE 23:03:30 86° ENE 23:08:17 10° NNW
Cosmos 2298 Rocket 4.2 23:00:27 10° NNW 23:05:45 71° WSW 23:08:51 25° S
Helios 1A 3.3 23:03:55 23° S 23:06:19 58° WSW 23:10:26 10° NNW
Cosmos 2034 Rocket 4.0 23:04:53 22° S 23:08:55 65° E 23:15:01 10° NNE
ATLAS 3B R/B 3.6 23:03:38 10° WSW 23:10:34 52° NW 23:17:16 10° NNE
Cosmos 1513 Rocket 4.4 23:07:10 18° S 23:11:47 84° E 23:17:59 10° N
Cosmos 1464 Rocket 4.1 23:09:53 15° S 23:15:18 85° W 23:21:44 10° N
Terra 1.7 23:20:01 33° SSE 23:22:08 87° E 23:26:57 10° NNW
Cosmos 2084 3.3 23:18:41 10° SW 23:22:59 88° ESE 23:27:04 10° NE
Cosmos 1937 Rocket 4.5 23:20:14 10° NW 23:24:58 38° WSW 23:27:55 20° SSW
Lacrosse 5 rocket 1.8 23:21:52 10° NW 23:26:09 57° NE 23:27:54 31° E
Aureole 2 Rocket 2.6 23:23:29 10° NNW 23:26:27 46° WSW 23:26:40 45° WSW
Meteor 1-23 Rocket 4.2 23:24:26 22° SSW 23:28:08 87° W 23:33:45 10° N
Shenzhou-11 Module 3.6 23:25:28 10° WSW 23:26:59 24° WSW 23:26:59 24° WSW
Cosmos 2360 Rocket 2.2 23:24:49 10° NNW 23:30:29 79° WSW 23:33:03 34° SSE
ISS -3.3 23:29:29 10° WSW 23:32:43 58° NNW 23:35:58 10° ENE
CARTOSAT-1 3.8 23:31:49 35° SSW 23:33:29 62° W 23:37:47 10° NNW
CZ-4C R/B 3.4 23:26:46 10° NNW 23:33:36 54° NE 23:39:07 20° ESE
Spot 4 4.4 23:33:02 33° ESE 23:34:43 47° ENE 23:39:23 10° N
YAOGAN 11 4.1 23:34:20 41° S 23:35:53 83° WSW 23:40:25 10° NNW
Cosmos 2219 Rocket 3.1 23:31:59 10° NNW 23:37:14 40° NE 23:40:01 24° ESE
Cosmos 1634 Rocket 4.4 23:37:37 32° SE 23:40:07 48° E 23:46:09 10° NNE
Cosmos 1763 Rocket 4.5 23:35:40 10° SW 23:40:47 47° WNW 23:45:54 10° NNE
Cosmos 841 Rocket 3.9 23:37:55 13° SW 23:42:31 63° WNW 23:47:46 10° NNE
Cosmos 2333 Rocket 3.1 23:37:32 10° NNW 23:42:53 40° NE 23:45:46 24° ESE
Cosmos 540 Rocket 3.4 23:41:48 31° SSW 23:44:21 84° ESE 23:49:34 10° NNE
CZ-2C R/B 2.8 23:40:22 10° NNE 23:45:57 60° E 23:47:57 38° SSE
COSMOS 2428 2.9 23:40:46 10° NNW 23:46:26 62° ENE 23:48:48 35° SE
Okean 2 3.3 23:45:24 46° SSW 23:46:34 84° W 23:50:47 10° N
H-2A R/B 4.3 23:45:22 10° SW 23:48:21 16° W 23:51:23 10° NW
Helios 1B rocket 3.7 23:46:12 10° N 23:50:05 39° WNW 23:52:46 18° SW
Cosmos 1606 Rocket 4.0 23:46:17 10° N 23:50:36 49° ENE 23:51:27 42° ESE
